TimeEST,TemperatureF,Dew PointF,Humidity,Sea Level PressureIn,VisibilityMPH,Wind Direction,Wind SpeedMPH,Gust SpeedMPH,PrecipitationIn,Events,Conditions,WindDirDegrees,DateUTC
12:54 AM,32.0,23.0,69,30.32,10.0,South,6.9,-,N/A,,Clear,190,2013-01-19 05:54:00
1:54 AM,33.1,21.9,64,30.32,10.0,South,10.4,-,N/A,,Clear,190,2013-01-19 06:54:00
2:54 AM,33.1,23.0,66,30.32,10.0,South,11.5,-,N/A,,Clear,180,2013-01-19 07:54:00
3:54 AM,33.1,23.0,66,30.31,10.0,South,10.4,-,N/A,,Clear,190,2013-01-19 08:54:00
4:54 AM,32.0,24.1,73,30.30,10.0,South,11.5,-,N/A,,Clear,190,2013-01-19 09:54:00
5:54 AM,32.0,24.1,73,30.29,10.0,South,11.5,-,N/A,,Clear,190,2013-01-19 10:54:00
6:54 AM,33.1,24.1,70,30.28,10.0,South,10.4,-,N/A,,Clear,180,2013-01-19 11:54:00
7:54 AM,36.0,25.0,64,30.29,10.0,SSW,16.1,-,N/A,,Clear,200,2013-01-19 12:54:00
8:54 AM,37.9,26.1,62,30.30,10.0,SSW,15.0,-,N/A,,Clear,210,2013-01-19 13:54:00
9:54 AM,42.1,27.0,55,30.28,10.0,SSW,20.7,28.8,N/A,,Clear,210,2013-01-19 14:54:00
10:54 AM,46.0,28.0,50,30.28,10.0,SW,17.3,28.8,N/A,,Clear,220,2013-01-19 15:54:00
11:54 AM,48.0,28.0,46,30.23,10.0,SSW,21.9,31.1,N/A,,Clear,210,2013-01-19 16:54:00
12:54 PM,50.0,28.0,43,30.18,10.0,SSW,20.7,27.6,N/A,,Clear,200,2013-01-19 17:54:00
1:54 PM,53.1,26.1,35,30.14,10.0,SSW,18.4,32.2,N/A,,Clear,200,2013-01-19 18:54:00
2:54 PM,53.1,24.1,32,30.11,10.0,SSW,21.9,31.1,N/A,,Clear,210,2013-01-19 19:54:00
3:54 PM,53.1,25.0,34,30.08,10.0,SSW,19.6,28.8,N/A,,Clear,210,2013-01-19 20:54:00
4:54 PM,51.1,26.1,38,30.06,10.0,SSW,18.4,27.6,N/A,,Clear,200,2013-01-19 21:54:00
5:54 PM,46.9,26.1,44,30.06,10.0,SSW,10.4,-,N/A,,Clear,210,2013-01-19 22:54:00
6:54 PM,46.0,25.0,44,30.05,10.0,SSW,15.0,-,N/A,,Clear,200,2013-01-19 23:54:00
7:54 PM,46.0,26.1,46,30.05,10.0,SSW,16.1,-,N/A,,Clear,200,2013-01-20 00:54:00
8:54 PM,45.0,28.0,52,30.04,10.0,SSW,18.4,-,N/A,,Clear,210,2013-01-20 01:54:00
9:54 PM,45.0,28.9,53,30.05,10.0,SW,17.3,25.3,N/A,,Clear,220,2013-01-20 02:54:00
10:54 PM,45.0,30.0,56,30.04,10.0,SW,18.4,24.2,N/A,,Clear,220,2013-01-20 03:54:00
11:54 PM,45.0,28.9,53,30.04,10.0,SW,17.3,28.8,N/A,,Clear,230,2013-01-20 04:54:00